Regional Weather Roundup
Issued by NWS

Home | Current Version | Previous Version | Graphics & Text | Print | Product List | Glossary On
Versions: 1 2 3 4 5 6 7 8 9 10 11 12 13 14 15 16 17 18 19 20 21 22 23 24 25 26 27 28 29 30 31 32 33 34 35 36 37 38 39 40 41 42 43 44 45 46 47 48 49 50
000
ASUS43 KOAX 222002
RWRNE

WEATHER ROUNDUP FOR NEBRASKA
NATIONAL WEATHER SERVICE OMAHA NE
300 PM CDT WED OCT 22 2014

NOTES: SATELLITE DATA IS BEING USED TO AUGMENT CLOUD COVER ABOVE
       12000 FEET.
       "FAIR" INDICATES FEW OR NO CLOUDS BELOW 12,000 FEET WITH NO
       SIGNIFICANT WEATHER AND/OR OBSTRUCTIONS TO VISIBILITY.

  * THESE STATIONS DO NOT REPORT WEATHER SUCH AS RAIN...SNOW OR FOG.

NEZ001>004-019>022-054>056-222100-
NEBRASKA PANHANDLE

CITY           SKY/WX    TMP DP  RH WIND       PRES   REMARKS
SCOTTSBLUFF    SUNNY     65  30  27 NW14      30.05F
ALLIANCE       SUNNY     64  34  32 NW12G21   30.04F
CHADRON        SUNNY     62  33  33 NW12      30.03S
KIMBALL        MOSUNNY   64  33  31 NW10      30.06S
SIDNEY         SUNNY     65  36  34 NW6       30.07S
$$

NEZ057>060-069>072-079>082-222100-
SOUTHWEST NEBRASKA

CITY           SKY/WX    TMP DP  RH WIND       PRES   REMARKS
NORTH PLATTE   PTSUNNY   69  53  56 NE6       30.00F
IMPERIAL       MOSUNNY   70  47  43 NE9       30.01F
LEXINGTON      CLOUDY    63  57  80 SW3       30.00S
MCCOOK         PTSUNNY   69  51  52 NE6       30.00S
OGALLALA       SUNNY     71  39  31 N8        30.03S
$$

NEZ005>010-023>029-035>040-094-222100-
NORTH CENTRAL NEBRASKA

CITY           SKY/WX    TMP DP  RH WIND       PRES   REMARKS
VALENTINE      PTSUNNY   64  43  46 NW10G16   30.00F
AINSWORTH      CLOUDY    58  49  72 NW7       30.01S
BROKEN BOW     CLOUDY    62  56  80 CALM      30.00R
O`NEILL        DRIZZLE   55  54  97 NW9       29.98F
ORD            LGT RAIN  59  57  93 CALM      29.96F
THEDFORD       PTSUNNY   64  51  62 W7        30.03S
$$

NEZ041-046>049-061>064-073>077-083>087-222100-
SOUTH CENTRAL NEBRASKA

CITY           SKY/WX    TMP DP  RH WIND       PRES   REMARKS
GRAND ISLAND   HVY RAIN  62  59  90 W17       30.00S FOG
AURORA         CLOUDY    65  58  79 W15G23    29.99R
HASTINGS       RAIN      61  57  87 W9        30.00S FOG
HEBRON         MOSUNNY   77  48  36 S14G28    29.97F
HOLDREGE       TSTM      62  58  88 CALM      29.99F
KEARNEY *      CLOUDY    61  57  88 S7        30.00F
YORK           PTSUNNY   77  52  41 S16G23    29.96F
$$

NEZ011>018-030>034-042>045-222100-
NORTHEAST NEBRASKA

CITY           SKY/WX    TMP DP  RH WIND       PRES   REMARKS
NORFOLK        CLOUDY    71  57  61 SW14      29.94F
ALBION         RAIN      62  57  84 W10       30.00R
BLAIR          MOSUNNY   74  52  46 SE13      30.00F
COLUMBUS *     PTSUNNY   79  52  38 S20G30    29.96F
FREMONT        PTSUNNY   77  53  42 SE16G24   29.98F
TEKAMAH        PTSUNNY   73  54  51 SE20G25   29.99F
WAYNE          CLOUDY    78  53  42 S22       29.93F
$$

NEZ050>053-065>068-078-088>093-222100-
SOUTHEAST NEBRASKA

CITY           SKY/WX    TMP DP  RH WIND       PRES   REMARKS
LINCOLN        MOSUNNY   79  52  38 S23       29.98F
OMAHA EPPLEY   MOSUNNY   74  52  46 S22       30.01F
BEATRICE       MOSUNNY   78  53  41 S20G33    30.00F
FALLS CITY     SUNNY     76  55  48 S15G23    30.05F
NEBRASKA CITY  SUNNY     75  49  40 S14G25    30.04F
PLATTSMOUTH    MOSUNNY   73  50  43 SE13      30.03F
$$

NEZ044-045-051>053-067-222100-
OMAHA AREA

CITY           SKY/WX    TMP DP  RH WIND       PRES   REMARKS
OMAHA EPPLEY   MOSUNNY   74  52  46 S22       30.01F
BLAIR          MOSUNNY   74  52  46 SE13      30.00F
FREMONT        PTSUNNY   77  53  42 SE16G24   29.98F
MILLARD        MOSUNNY   75  55  50 SE15      30.00F
OFFUTT AFB     MOSUNNY   74  55  51 SE17      30.01F
PLATTSMOUTH    MOSUNNY   73  50  43 SE13      30.03F
WAHOO          FAIR      80  49  33 S23G35    29.98F
$$



USA.gov is the U.S. government's official web portal to all federal, state and local government web resources and services.